QPF
0.02 0.02 0.02 0.02 0.02 0.03 0.03 0.04 0.07 0.06 0.04 0.05 0.06 0.08 0.07 0.09 0.06 0.02 0.03 0.04 0.06 0.07 0.08 0.05 0.03 0.03 0.02 0.02 0.02 0.01 0.01 0.01 0.00 0.00 0.00 0.00 0.00 0.00 0.00 0.00 0.00 0.00 0.00 0.00
0.03 0.02 0.01 0.01 0.02 0.03 0.05 0.04 0.07 0.07 0.06 0.05 0.04 0.04 0.05 0.06 0.04 0.02 0.02 0.02 0.03 0.04 0.07 0.05 0.03 0.02 0.01 0.01 0.00 0.00 0.00 0.00 0.00 0.00 0.00 0.00 0.00 0.00 0.00 0.00 0.00 0.00 0.00 0.00
0.03 0.02 0.01 0.02 0.04 0.05 0.05 0.04 0.05 0.07 0.09 0.07 0.05 0.04 0.04 0.05 0.05 0.04 0.03 0.03 0.02 0.02 0.04 0.04 0.03 0.02 0.02 0.01 0.00 0.00 0.00 0.00 0.00 0.00 0.00 0.00 0.00 0.00 0.00 0.00 0.00 0.00 0.00 0.00
0.02 0.01 0.01 0.03 0.04 0.04 0.05 0.03 0.03 0.06 0.09 0.10 0.07 0.06 0.04 0.04 0.05 0.04 0.05 0.05 0.03 0.02 0.03 0.05 0.06 0.04 0.01 0.01 0.00 0.00 0.01 0.00 0.00 0.00 0.00 0.00 0.00 0.00 0.00 0.00 0.00 0.00 0.00 0.00
0.02 0.01 0.01 0.02 0.02 0.02 0.04 0.03 0.04 0.06 0.09 0.11 0.08 0.06 0.07 0.06 0.04 0.05 0.04 0.04 0.03 0.03 0.03 0.03 0.03 0.03 0.02 0.01 0.00 0.00 0.00 0.00 0.01 0.01 0.00 0.00 0.00 0.00 0.00 0.00 0.00 0.00 0.00 0.00
0.02 0.01 0.01 0.01 0.01 0.02 0.02 0.03 0.06 0.07 0.07 0.07 0.04 0.03 0.06 0.05 0.03 0.03 0.03 0.02 0.02 0.02 0.02 0.01 0.02 0.01 0.01 0.01 0.01 0.01 0.00 0.01 0.01 0.01 0.00 0.00 0.00 0.00 0.00 0.00 0.00 0.00 0.00 0.00
0.02 0.01 0.01 0.01 0.01 0.03 0.03 0.06 0.08 0.07 0.06 0.06 0.04 0.04 0.05 0.03 0.02 0.02 0.02 0.01 0.01 0.00 0.01 0.01 0.01 0.01 0.00 0.00 0.00 0.01 0.00 0.01 0.01 0.00 0.00 0.00 0.00 0.00 0.00 0.00 0.00 0.00 0.00 0.00
0.03 0.03 0.02 0.01 0.01 0.02 0.03 0.05 0.06 0.05 0.04 0.06 0.07 0.06 0.05 0.03 0.02 0.01 0.01 0.01 0.01 0.01 0.01 0.01 0.01 0.01 0.00 0.00 0.00 0.00 0.00 0.00 0.00 0.00 0.00 0.00 0.00 0.00 0.00 0.00 0.00 0.00 0.00 0.00
0.04 0.04 0.03 0.03 0.03 0.03 0.03 0.05 0.05 0.05 0.04 0.04 0.05 0.04 0.03 0.03 0.02 0.01 0.01 0.02 0.02 0.03 0.02 0.02 0.01 0.01 0.00 0.00 0.00 0.00 0.00 0.00 0.00 0.00 0.00 0.00 0.00 0.00 0.00 0.00 0.00 0.00 0.00 0.00
0.06 0.06 0.04 0.03 0.03 0.03 0.04 0.04 0.04 0.07 0.07 0.05 0.04 0.04 0.04 0.04 0.02 0.01 0.01 0.02 0.02 0.02 0.02 0.02 0.02 0.01 0.00 0.00 0.00 0.00 0.00 0.00 0.00 0.00 0.00 0.00 0.00 0.00 0.00 0.00 0.00 0.00 0.00 0.00
0.04 0.04 0.03 0.03 0.02 0.02 0.02 0.03 0.04 0.06 0.08 0.08 0.05 0.03 0.03 0.02 0.02 0.01 0.02 0.02 0.04 0.04 0.03 0.04 0.03 0.02 0.01 0.01 0.00 0.00 0.01 0.00 0.00 0.00 0.00 0.00 0.00 0.00 0.00 0.00 0.00 0.00 0.00 0.00
0.03 0.03 0.02 0.02 0.02 0.01 0.02 0.02 0.04 0.06 0.07 0.05 0.02 0.02 0.01 0.01 0.01 0.01 0.01 0.03 0.04 0.04 0.03 0.03 0.02 0.01 0.00 0.01 0.00 0.00 0.00 0.00 0.00 0.00 0.00 0.00 0.00 0.00 0.00 0.00 0.00 0.00 0.00 0.00
0.02 0.03 0.03 0.03 0.02 0.02 0.01 0.01 0.02 0.03 0.05 0.04 0.01 0.00 0.01 0.00 0.01 0.01 0.01 0.01 0.06 0.04 0.02 0.01 0.01 0.00 0.00 0.01 0.00 0.00 0.00 0.00 0.00 0.00 0.00 0.00 0.00 0.00 0.00 0.00 0.00 0.00 0.00 0.00
0.01 0.02 0.02 0.03 0.02 0.02 0.01 0.02 0.02 0.02 0.02 0.02 0.01 0.00 0.00 0.00 0.00 0.01 0.01 0.01 0.04 0.03 0.02 0.01 0.00 0.00 0.00 0.00 0.00 0.00 0.00 0.00 0.00 0.00 0.00 0.00 0.00 0.00 0.00 0.00 0.00 0.00 0.00 0.00
0.01 0.01 0.01 0.01 0.01 0.01 0.01 0.01 0.01 0.01 0.02 0.02 0.00 0.00 0.00 0.00 0.00 0.00 0.00 0.00 0.01 0.01 0.01 0.00 0.00 0.00 0.00 0.00 0.00 0.00 0.00 0.00 0.00 0.00 0.00 0.00 0.00 0.00 0.00 0.00 0.00 0.00 0.00 0.00
0.00 0.00 0.00 0.01 0.01 0.01 0.01 0.01 0.00 0.01 0.02 0.02 0.00 0.00 0.00 0.00 0.00 0.00 0.00 0.00 0.00 0.00 0.00 0.00 0.00 0.00 0.00 0.00 0.00 0.00 0.00 0.00 0.00 0.00 0.00 0.00 0.00 0.00 0.00 0.00 0.00 0.00 0.00 0.00
0.01 0.00 0.00 0.01 0.01 0.01 0.01 0.00 0.00 0.00 0.01 0.01 0.00 0.00 0.00 0.01 0.00 0.00 0.00 0.00 0.00 0.00 0.00 0.00 0.00 0.00 0.00 0.00 0.00 0.00 0.00 0.00 0.00 0.00 0.00 0.00 0.00 0.00 0.00 0.00 0.00 0.00 0.00 0.00
0.00 0.00 0.00 0.00 0.00 0.00 0.00 0.00 0.00 0.00 0.01 0.00 0.00 0.00 0.00 0.00 0.00 0.00 0.00 0.00 0.00 0.00 0.00 0.00 0.00 0.00 0.00 0.00 0.00 0.00 0.00 0.00 0.00 0.00 0.00 0.00 0.00 0.00 0.00 0.00 0.00 0.00 0.00 0.00
0.00 0.00 0.00 0.00 0.00 0.00 0.00 0.00 0.00 0.00 0.00 0.00 0.00 0.00 0.00 0.00 0.00 0.00 0.00 0.00 0.00 0.00 0.00 0.00 0.00 0.00 0.00 0.00 0.00 0.00 0.00 0.00 0.00 0.00 0.00 0.00 0.00 0.00 0.00 0.00 0.00 0.00 0.00 0.00
0.00 0.00 0.00 0.01 0.00 0.00 0.00 0.00 0.00 0.00 0.00 0.00 0.00 0.00 0.00 0.00 0.00 0.00 0.00 0.00 0.00 0.00 0.00 0.00 0.00 0.00 0.00 0.00 0.00 0.00 0.00 0.00 0.00 0.00 0.00 0.00 0.00 0.00 0.00 0.00 0.00 0.00 0.00 0.00
0.00 0.00 0.00 0.00 0.00 0.00 0.00 0.00 0.00 0.00 0.00 0.00 0.00 0.00 0.00 0.00 0.00 0.00 0.00 0.00 0.00 0.00 0.00 0.00 0.00 0.00 0.00 0.00 0.00 0.00 0.00 0.00 0.00 0.00 0.00 0.00 0.00 0.00 0.00 0.00 0.00 0.00 0.00 0.00
0.00 0.00 0.00 0.00 0.00 0.00 0.00 0.00 0.00 0.00 0.00 0.00 0.00 0.00 0.00 0.00 0.00 0.00 0.00 0.00 0.00 0.00 0.00 0.00 0.00 0.00 0.00 0.00 0.00 0.00 0.00 0.00 0.00 0.00 0.00 0.00 0.00 0.00 0.00 0.00 0.00 0.00 0.00 0.00
0.00 0.00 0.00 0.00 0.00 0.00 0.00 0.00 0.00 0.00 0.00 0.00 0.00 0.00 0.00 0.00 0.00 0.00 0.00 0.00 0.00 0.00 0.00 0.00 0.00 0.00 0.00 0.00 0.00 0.00 0.00 0.00 0.00 0.00 0.00 0.00 0.00 0.00 0.00 0.00 0.00 0.00 0.00 0.00
0.00 0.00 0.00 0.00 0.00 0.00 0.00 0.00 0.00 0.00 0.00 0.00 0.00 0.00 0.00 0.00 0.00 0.00 0.00 0.00 0.00 0.00 0.00 0.00 0.00 0.00 0.00 0.00 0.00 0.00 0.00 0.00 0.00 0.00 0.00 0.00 0.00 0.00 0.00 0.00 0.00 0.00 0.00 0.00
0.00 0.00 0.00 0.00 0.00 0.00 0.00 0.00 0.00 0.00 0.00 0.00 0.00 0.00 0.00 0.00 0.00 0.00 0.00 0.00 0.00 0.00 0.00 0.00 0.00 0.00 0.00 0.00 0.00 0.00 0.00 0.00 0.00 0.00 0.00 0.00 0.00 0.00 0.00 0.00 0.00 0.00 0.00 0.00
0.00 0.00 0.00 0.00 0.00 0.00 0.00 0.00 0.00 0.00 0.00 0.00 0.00 0.00 0.00 0.00 0.00 0.00 0.00 0.00 0.00 0.00 0.00 0.00 0.00 0.00 0.00 0.00 0.00 0.00 0.00 0.00 0.00 0.00 0.00 0.00 0.00 0.00 0.00 0.00 0.00 0.00 0.00 0.00
MSLP
1012.72 1013.56 1014.26 1014.85 1015.34 1015.77 1016.16 1016.53 1016.86 1017.13 1017.27 1017.26 1017.07 1016.70 1016.18 1015.58 1014.98 1014.46 1014.08 1013.89 1013.87 1014.00 1014.24 1014.51 1014.77 1014.96 1015.08 1015.12 1015.12 1015.11 1015.12 1015.18 1015.30 1015.46 1015.64 1015.80 1015.93 1016.00 1016.00 1015.93 1015.81 1015.67 1015.52 1015.39
1013.11 1013.77 1014.30 1014.73 1015.11 1015.48 1015.89 1016.33 1016.78 1017.18 1017.46 1017.55 1017.43 1017.08 1016.54 1015.89 1015.22 1014.63 1014.19 1013.96 1013.93 1014.08 1014.35 1014.65 1014.93 1015.12 1015.23 1015.25 1015.21 1015.17 1015.17 1015.23 1015.37 1015.57 1015.80 1016.02 1016.19 1016.28 1016.27 1016.18 1016.03 1015.84 1015.65 1015.49
1013.22 1013.68 1014.03 1014.31 1014.61 1014.97 1015.43 1015.98 1016.57 1017.13 1017.56 1017.78 1017.74 1017.43 1016.88 1016.19 1015.45 1014.79 1014.30 1014.02 1013.98 1014.12 1014.40 1014.71 1015.00 1015.20 1015.29 1015.29 1015.24 1015.17 1015.16 1015.23 1015.40 1015.64 1015.91 1016.17 1016.38 1016.48 1016.47 1016.36 1016.18 1015.96 1015.74 1015.56
1013.12 1013.37 1013.54 1013.72 1013.97 1014.36 1014.91 1015.61 1016.37 1017.11 1017.69 1018.03 1018.07 1017.79 1017.23 1016.49 1015.69 1014.96 1014.40 1014.08 1013.99 1014.12 1014.39 1014.72 1015.01 1015.21 1015.30 1015.29 1015.22 1015.15 1015.13 1015.20 1015.37 1015.63 1015.93 1016.22 1016.45 1016.56 1016.56 1016.44 1016.24 1016.00 1015.77 1015.57
1012.89 1012.94 1012.98 1013.09 1013.34 1013.81 1014.49 1015.34 1016.28 1017.18 1017.91 1018.35 1018.45 1018.18 1017.60 1016.81 1015.95 1015.15 1014.52 1014.14 1014.02 1014.13 1014.39 1014.71 1015.01 1015.21 1015.30 1015.29 1015.21 1015.13 1015.09 1015.15 1015.32 1015.57 1015.87 1016.17 1016.40 1016.52 1016.52 1016.40 1016.20 1015.96 1015.72 1015.53
1012.63 1012.53 1012.48 1012.57 1012.87 1013.43 1014.25 1015.26 1016.36 1017.39 1018.22 1018.73 1018.85 1018.58 1017.97 1017.13 1016.21 1015.35 1014.67 1014.24 1014.09 1014.18 1014.43 1014.75 1015.05 1015.27 1015.37 1015.35 1015.27 1015.16 1015.10 1015.13 1015.27 1015.49 1015.76 1016.04 1016.26 1016.38 1016.39 1016.28 1016.08 1015.85 1015.62 1015.44
1012.43 1012.23 1012.14 1012.24 1012.62 1013.29 1014.23 1015.37 1016.57 1017.68 1018.56 1019.10 1019.22 1018.92 1018.28 1017.40 1016.44 1015.55 1014.84 1014.40 1014.23 1014.31 1014.56 1014.89 1015.20 1015.43 1015.53 1015.52 1015.42 1015.30 1015.20 1015.19 1015.27 1015.44 1015.66 1015.90 1016.10 1016.21 1016.21 1016.12 1015.94 1015.73 1015.52 1015.35
1012.32 1012.07 1011.99 1012.14 1012.60 1013.36 1014.38 1015.59 1016.83 1017.96 1018.84 1019.35 1019.44 1019.11 1018.45 1017.57 1016.61 1015.72 1015.03 1014.60 1014.44 1014.54 1014.80 1015.14 1015.47 1015.70 1015.82 1015.80 1015.70 1015.55 1015.42 1015.35 1015.37 1015.48 1015.64 1015.83 1015.99 1016.08 1016.09 1016.01 1015.86 1015.66 1015.47 1015.31
1012.27 1012.04 1012.00 1012.22 1012.74 1013.55 1014.61 1015.82 1017.03 1018.10 1018.91 1019.36 1019.40 1019.06 1018.40 1017.55 1016.65 1015.82 1015.20 1014.82 1014.71 1014.84 1015.13 1015.48 1015.82 1016.07 1016.19 1016.18 1016.08 1015.91 1015.75 1015.64 1015.61 1015.65 1015.75 1015.88 1016.01 1016.08 1016.09 1016.02 1015.89 1015.72 1015.54 1015.37
1012.24 1012.08 1012.11 1012.39 1012.95 1013.77 1014.80 1015.93 1017.03 1017.99 1018.68 1019.04 1019.04 1018.69 1018.08 1017.31 1016.51 1015.81 1015.29 1015.02 1014.98 1015.16 1015.48 1015.85 1016.20 1016.46 1016.59 1016.60 1016.51 1016.35 1016.18 1016.05 1015.97 1015.97 1016.02 1016.11 1016.21 1016.27 1016.27 1016.22 1016.10 1015.95 1015.77 1015.59
1012.17 1012.10 1012.22 1012.56 1013.13 1013.91 1014.83 1015.82 1016.76 1017.54 1018.09 1018.35 1018.30 1017.97 1017.45 1016.81 1016.18 1015.64 1015.28 1015.13 1015.19 1015.42 1015.77 1016.16 1016.52 1016.79 1016.94 1016.98 1016.92 1016.79 1016.65 1016.53 1016.45 1016.43 1016.46 1016.52 1016.59 1016.64 1016.65 1016.60 1016.50 1016.35 1016.17 1015.97
1012.02 1012.08 1012.29 1012.67 1013.21 1013.90 1014.68 1015.47 1016.19 1016.77 1017.16 1017.31 1017.23 1016.95 1016.54 1016.08 1015.64 1015.31 1015.12 1015.11 1015.27 1015.57 1015.94 1016.34 1016.70 1016.98 1017.16 1017.24 1017.24 1017.18 1017.09 1017.02 1016.97 1016.96 1016.99 1017.05 1017.11 1017.15 1017.15 1017.11 1017.02 1016.88 1016.70 1016.49
1011.82 1012.00 1012.29 1012.68 1013.17 1013.74 1014.33 1014.90 1015.38 1015.75 1015.96 1016.01 1015.92 1015.71 1015.43 1015.15 1014.93 1014.80 1014.80 1014.94 1015.19 1015.54 1015.93 1016.33 1016.69 1016.98 1017.20 1017.34 1017.41 1017.44 1017.45 1017.45 1017.47 1017.50 1017.55 1017.61 1017.67 1017.71 1017.71 1017.67 1017.59 1017.45 1017.28 1017.06
1011.60 1011.90 1012.24 1012.63 1013.05 1013.46 1013.85 1014.18 1014.42 1014.57 1014.61 1014.57 1014.46 1014.32 1014.19 1014.10 1014.08 1014.16 1014.33 1014.59 1014.93 1015.31 1015.72 1016.11 1016.47 1016.79 1017.05 1017.26 1017.43 1017.56 1017.68 1017.78 1017.88 1017.97 1018.05 1018.13 1018.18 1018.22 1018.22 1018.18 1018.10 1017.98 1017.82 1017.62
1011.46 1011.84 1012.21 1012.57 1012.88 1013.14 1013.31 1013.40 1013.41 1013.34 1013.23 1013.10 1012.98 1012.90 1012.89 1012.97 1013.14 1013.39 1013.71 1014.08 1014.49 1014.91 1015.32 1015.71 1016.08 1016.42 1016.73 1017.02 1017.29 1017.54 1017.76 1017.97 1018.15 1018.30 1018.42 1018.50 1018.56 1018.58 1018.58 1018.54 1018.48 1018.38 1018.25 1018.08
1011.45 1011.87 1012.24 1012.53 1012.73 1012.82 1012.78 1012.64 1012.42 1012.16 1011.89 1011.68 1011.54 1011.51 1011.60 1011.81 1012.13 1012.52 1012.97 1013.43 1013.90 1014.35 1014.77 1015.17 1015.56 1015.93 1016.30 1016.66 1017.03 1017.38 1017.72 1018.01 1018.27 1018.46 1018.61 1018.70 1018.75 1018.76 1018.75 1018.72 1018.67 1018.60 1018.51 1018.39
1011.61 1012.01 1012.34 1012.55 1012.62 1012.53 1012.29 1011.94 1011.51 1011.07 1010.67 1010.36 1010.20 1010.19 1010.35 1010.66 1011.08 1011.59 1012.13 1012.68 1013.20 1013.68 1014.13 1014.55 1014.96 1015.38 1015.81 1016.25 1016.70 1017.14 1017.56 1017.93 1018.23 1018.46 1018.62 1018.71 1018.75 1018.74 1018.72 1018.70 1018.67 1018.64 1018.60 1018.54
1011.90 1012.25 1012.50 1012.60 1012.52 1012.26 1011.84 1011.30 1010.69 1010.09 1009.57 1009.18 1008.97 1008.96 1009.16 1009.53 1010.03 1010.61 1011.23 1011.84 1012.42 1012.95 1013.44 1013.90 1014.36 1014.82 1015.31 1015.82 1016.34 1016.85 1017.33 1017.74 1018.07 1018.32 1018.47 1018.55 1018.58 1018.57 1018.55 1018.53 1018.53 1018.53 1018.54 1018.55
1012.24 1012.50 1012.63 1012.60 1012.37 1011.95 1011.37 1010.67 1009.92 1009.19 1008.57 1008.11 1007.86 1007.84 1008.04 1008.44 1008.99 1009.62 1010.29 1010.96 1011.59 1012.18 1012.73 1013.25 1013.76 1014.29 1014.84 1015.41 1015.98 1016.54 1017.04 1017.48 1017.82 1018.07 1018.22 1018.29 1018.31 1018.30 1018.29 1018.29 1018.31 1018.36 1018.41 1018.46
1012.52 1012.65 1012.65 1012.46 1012.09 1011.54 1010.82 1010.01 1009.15 1008.34 1007.65 1007.14 1006.86 1006.82 1007.02 1007.43 1007.99 1008.65 1009.36 1010.08 1010.76 1011.41 1012.03 1012.61 1013.20 1013.79 1014.40 1015.02 1015.63 1016.21 1016.73 1017.17 1017.52 1017.76 1017.91 1017.98 1018.01 1018.01 1018.02 1018.04 1018.10 1018.18 1018.26 1018.34
1012.60 1012.59 1012.43 1012.11 1011.61 1010.95 1010.15 1009.26 1008.36 1007.51 1006.80 1006.27 1005.97 1005.92 1006.10 1006.51 1007.07 1007.74 1008.47 1009.22 1009.95 1010.66 1011.34 1012.00 1012.65 1013.31 1013.97 1014.62 1015.26 1015.85 1016.38 1016.82 1017.17 1017.41 1017.57 1017.66 1017.71 1017.74 1017.78 1017.84 1017.92 1018.03 1018.13 1018.21
1012.40 1012.22 1011.92 1011.47 1010.87 1010.14 1009.30 1008.41 1007.52 1006.70 1006.01 1005.50 1005.22 1005.16 1005.34 1005.72 1006.27 1006.93 1007.66 1008.42 1009.19 1009.94 1010.68 1011.40 1012.11 1012.82 1013.52 1014.21 1014.86 1015.46 1015.99 1016.43 1016.78 1017.04 1017.21 1017.33 1017.42 1017.49 1017.58 1017.67 1017.79 1017.90 1018.01 1018.07
1011.87 1011.53 1011.08 1010.53 1009.87 1009.12 1008.30 1007.46 1006.65 1005.91 1005.30 1004.85 1004.61 1004.58 1004.75 1005.11 1005.62 1006.25 1006.96 1007.71 1008.49 1009.26 1010.04 1010.81 1011.57 1012.32 1013.05 1013.76 1014.42 1015.03 1015.56 1016.00 1016.36 1016.63 1016.84 1017.00 1017.14 1017.26 1017.39 1017.52 1017.65 1017.77 1017.86 1017.90
1011.02 1010.53 1009.97 1009.34 1008.66 1007.93 1007.19 1006.46 1005.77 1005.16 1004.67 1004.33 1004.16 1004.16 1004.34 1004.68 1005.15 1005.73 1006.39 1007.11 1007.87 1008.64 1009.43 1010.22 1011.01 1011.79 1012.54 1013.27 1013.94 1014.54 1015.07 1015.52 1015.89 1016.19 1016.43 1016.63 1016.82 1016.99 1017.16 1017.32 1017.47 1017.58 1017.64 1017.64
1009.94 1009.32 1008.67 1008.00 1007.33 1006.67 1006.04 1005.45 1004.93 1004.49 1004.16 1003.94 1003.86 1003.91 1004.09 1004.41 1004.83 1005.35 1005.95 1006.61 1007.33 1008.08 1008.85 1009.65 1010.45 1011.24 1012.00 1012.73 1013.40 1014.01 1014.54 1014.99 1015.37 1015.69 1015.96 1016.20 1016.43 1016.64 1016.84 1017.02 1017.17 1017.26 1017.30 1017.25
1008.76 1008.04 1007.33 1006.65 1006.02 1005.44 1004.94 1004.51 1004.17 1003.90 1003.73 1003.65 1003.66 1003.76 1003.96 1004.24 1004.62 1005.07 1005.60 1006.19 1006.85 1007.56 1008.31 1009.09 1009.89 1010.68 1011.44 1012.17 1012.84 1013.44 1013.96 1014.41 1014.80 1015.13 1015.43 1015.70 1015.94 1016.18 1016.39 1016.58 1016.72 1016.79 1016.79 1016.71
Thickness
5690 5680 5675 5684 5691 5695 5696 5694 5694 5703 5719 5718 5714 5716 5725 5735 5736 5736 5737 5739 5741 5745 5750 5753 5753 5753 5752 5751 5749 5748 5746 5744 5743 5739 5736 5733 5731 5730 5730 5729 5728 5726 5724 5722
5675 5674 5689 5697 5699 5699 5697 5691 5693 5703 5718 5716 5708 5712 5721 5729 5733 5736 5737 5738 5740 5741 5744 5746 5748 5749 5748 5747 5747 5746 5744 5743 5742 5740 5737 5734 5731 5729 5728 5727 5726 5725 5723 5721
5673 5684 5699 5698 5695 5694 5695 5693 5695 5697 5706 5712 5706 5700 5710 5722 5731 5734 5737 5739 5741 5742 5741 5743 5743 5744 5745 5745 5745 5746 5744 5743 5741 5740 5736 5732 5729 5726 5724 5723 5723 5723 5721 5719
5681 5694 5698 5695 5696 5698 5690 5707 5708 5703 5692 5686 5697 5681 5700 5712 5719 5726 5730 5733 5737 5741 5741 5741 5742 5742 5743 5745 5746 5745 5744 5742 5740 5738 5735 5730 5725 5721 5721 5721 5721 5721 5720 5718
5684 5697 5697 5695 5702 5706 5701 5714 5709 5701 5690 5684 5689 5681 5692 5709 5710 5718 5726 5731 5734 5738 5739 5740 5741 5743 5744 5745 5744 5743 5742 5740 5739 5737 5734 5730 5725 5723 5722 5721 5719 5718 5718 5716
5696 5710 5709 5708 5715 5716 5713 5706 5699 5692 5684 5673 5685 5681 5686 5701 5712 5719 5725 5730 5733 5736 5738 5739 5741 5741 5742 5742 5742 5742 5740 5738 5737 5735 5733 5729 5726 5723 5720 5718 5717 5716 5715 5714
5691 5704 5714 5718 5709 5710 5705 5686 5670 5666 5662 5669 5689 5685 5692 5715 5724 5727 5728 5730 5733 5735 5735 5735 5736 5737 5738 5739 5739 5738 5737 5735 5735 5733 5731 5729 5726 5724 5721 5718 5716 5714 5713 5712
5677 5682 5707 5716 5711 5703 5700 5692 5671 5661 5661 5670 5685 5684 5702 5725 5731 5732 5733 5732 5732 5732 5733 5734 5735 5736 5736 5737 5736 5736 5734 5733 5732 5731 5730 5728 5726 5724 5721 5720 5717 5715 5713 5712
5679 5685 5714 5722 5723 5713 5698 5691 5694 5679 5675 5668 5677 5692 5710 5723 5724 5726 5727 5728 5727 5729 5731 5732 5734 5734 5735 5734 5734 5734 5733 5731 5730 5730 5728 5727 5725 5723 5721 5720 5718 5716 5714 5713
5695 5689 5708 5721 5721 5716 5711 5703 5688 5679 5667 5662 5675 5684 5691 5708 5714 5721 5723 5724 5726 5728 5729 5730 5731 5732 5732 5733 5733 5732 5731 5730 5729 5728 5726 5725 5723 5722 5721 5718 5716 5715 5714 5713
5705 5693 5701 5711 5709 5705 5705 5701 5693 5682 5679 5666 5663 5681 5717 5718 5722 5721 5722 5725 5726 5726 5727 5727 5728 5729 5730 5730 5729 5728 5728 5727 5726 5725 5724 5722 5720 5720 5719 5717 5715 5714 5713 5712
5708 5694 5689 5704 5722 5727 5718 5711 5699 5683 5678 5678 5674 5688 5729 5727 5727 5725 5723 5724 5725 5725 5725 5725 5725 5725 5725 5725 5725 5725 5724 5723 5723 5722 5721 5719 5717 5716 5715 5714 5713 5713 5711 5710
5713 5696 5683 5688 5703 5717 5717 5718 5712 5701 5687 5678 5674 5692 5724 5725 5723 5724 5722 5721 5721 5722 5722 5721 5720 5720 5720 5720 5721 5721 5720 5720 5720 5719 5717 5715 5713 5712 5711 5711 5711 5710 5709 5708
5723 5702 5693 5688 5698 5711 5713 5718 5717 5705 5687 5684 5689 5699 5712 5717 5718 5718 5719 5719 5718 5718 5718 5717 5715 5715 5716 5717 5717 5717 5717 5717 5717 5715 5713 5711 5710 5709 5708 5708 5708 5707 5706 5704
5722 5704 5708 5713 5720 5722 5721 5721 5720 5712 5707 5699 5704 5706 5714 5720 5722 5721 5719 5717 5716 5715 5715 5714 5713 5712 5713 5713 5713 5713 5713 5713 5713 5711 5708 5707 5706 5706 5705 5704 5703 5703 5702 5701
5716 5709 5710 5711 5722 5722 5719 5723 5723 5720 5718 5713 5712 5711 5723 5723 5720 5717 5716 5716 5714 5713 5713 5713 5712 5711 5710 5710 5709 5709 5708 5708 5708 5706 5704 5703 5702 5702 5700 5700 5699 5698 5696 5696
5708 5706 5699 5695 5711 5713 5703 5720 5722 5720 5723 5721 5711 5716 5721 5717 5717 5717 5717 5716 5714 5713 5712 5711 5710 5709 5708 5707 5707 5706 5705 5704 5703 5701 5699 5699 5698 5696 5695 5695 5693 5692 5691 5690
5708 5701 5691 5690 5697 5685 5710 5733 5733 5725 5725 5728 5727 5725 5725 5725 5723 5721 5720 5717 5714 5713 5711 5709 5708 5707 5706 5706 5705 5703 5701 5699 5698 5696 5694 5694 5693 5691 5690 5689 5687 5686 5685 5684
5715 5704 5689 5681 5682 5692 5714 5729 5730 5720 5714 5727 5725 5723 5722 5721 5715 5711 5717 5718 5716 5713 5711 5709 5707 5705 5703 5702 5701 5699 5696 5694 5692 5690 5689 5689 5688 5686 5684 5682 5681 5680 5679 5678
5709 5704 5689 5679 5680 5680 5708 5730 5738 5726 5706 5725 5726 5722 5718 5715 5698 5702 5714 5715 5712 5710 5708 5706 5703 5701 5699 5697 5696 5693 5689 5687 5685 5685 5685 5684 5682 5680 5678 5677 5675 5674 5673 5671
5693 5688 5681 5676 5677 5689 5717 5730 5731 5704 5707 5726 5726 5724 5719 5714 5713 5715 5714 5711 5709 5706 5704 5701 5698 5695 5693 5692 5690 5686 5683 5681 5681 5680 5679 5677 5676 5674 5673 5671 5669 5667 5665 5664
5686 5680 5676 5671 5672 5685 5722 5724 5716 5717 5727 5727 5724 5722 5719 5715 5713 5711 5709 5706 5703 5700 5697 5695 5692 5688 5687 5686 5683 5679 5676 5676 5675 5674 5672 5670 5668 5667 5666 5662 5660 5658 5656 5654
5686 5690 5685 5685 5689 5708 5719 5723 5726 5726 5723 5721 5719 5718 5716 5710 5706 5704 5701 5699 5696 5694 5691 5688 5685 5681 5679 5678 5676 5672 5671 5670 5668 5665 5663 5661 5660 5658 5656 5653 5651 5648 5646 5644
5687 5692 5686 5685 5694 5705 5711 5717 5720 5722 5720 5719 5717 5714 5711 5705 5701 5698 5695 5691 5688 5686 5683 5680 5677 5673 5670 5670 5669 5667 5665 5663 5660 5657 5654 5652 5650 5648 5646 5644 5642 5639 5636 5633
5682 5684 5678 5678 5689 5696 5701 5706 5710 5712 5713 5710 5708 5706 5703 5699 5694 5691 5687 5684 5681 5678 5675 5673 5669 5666 5663 5662 5661 5660 5658 5655 5651 5647 5645 5642 5640 5638 5636 5634 5631 5630 5628 5625
5674 5676 5673 5673 5684 5684 5689 5698 5703 5702 5700 5700 5698 5694 5693 5691 5687 5682 5678 5676 5673 5669 5666 5663 5660 5658 5655 5654 5652 5650 5649 5646 5642 5638 5635 5632 5629 5627 5625 5622 5621 5621 5619 5618